星链-34097 (STARLINK-34097)

导读 | 豆包AI

STARLINK-34097是美国SpaceX公司星链(Starlink)星座的一颗卫星,于2025年5月10日由美国发射升空。星链项目旨在低地球轨道部署大规模卫星星座,为全球提供高速低延迟宽带互联网服务,尤其覆盖传统基础设施匮乏的偏远地区。该卫星属于星链不断扩容的星座网络,助力实现全球无缝卫星互联网覆盖,支持视频通话、在线游戏等多种应用场景。

基本信息
目录编号:
63903
目录名称:
STARLINK-34097
国际标识:
2025-095P
轨道中心:
EARTH
卫星名称:
星链-34097
卫星全名:
星链-34097 (STARLINK-34097)
卫星状态:
在轨 (已飞行308 天)
发射日期:
2025-05-10 UTC
国别 :
美国 (US)
星等 :
--
轨道信息
数据来源 国际轨道数据
星历时间: 2026-03-14T21:22:04+0800
7小时前
查看轨道信息
半长轴: 6861.134km
偏心率: 0.000158
轨道倾角: 42.998°
近地点辐角 268.238°
升交点赤经 148.601°
平近点角 91.829°
近地点: 481.912km
远地点: 484.082km
周期: 94.266分钟
每日圈数: 15.275974
详细信息
固有亮度:
5
最大亮度:
2.5
卫星平台:
Starlink V1.0
覆盖范围:
全球
运营商:
太空探索技术公司
运营商所在国:
美国
制造商(研发单位):
太空探索技术公司
制造商所在国:
美国
使用方式:
暂无
卫星简介
Starlink 计划是 SpaceX 推出的全球卫星互联网项目,通过发射低轨道卫星,为全球尤其是偏远地区提供高速、低延迟的互联网服务。自 2019 年起,Starlink 已部署数千颗卫星,旨在缩小全球数字鸿沟,推动互联网普及。该项目还为军事、航空等行业提供通信支持,带来广泛经济效益。
2D轨道图
3D轨道图
轨道高度分析图
轨道倾角分析图
轨道综合分析图
查看轨道综合分析图